Lid_Strength_Index
3 2 2 2 2 2 2 2 2 1 2 2 2 2 3 3 2 1 2 2 2 1 1 1 1 0 1 1 1 1 1 2 3 2 1 0 0 0 -0 -1 -1 -1 -1
3 3 2 2 2 2 2 2 2 2 2 2 3 3 3 2 2 3 3 3 4 4 3 3 2 1 1 1 1 1 1 1 2 3 1 1 1 -0 -0 -0 -0 -0 -1
3 3 3 2 2 2 2 2 2 3 3 3 3 3 3 4 4 4 4 4 4 4 4 4 3 2 1 1 1 1 1 1 1 2 2 1 1 1 1 0 0 -0 -0
3 3 3 3 3 3 3 3 3 3 3 3 3 4 4 4 4 4 5 5 5 5 4 4 4 3 2 1 1 1 1 2 1 2 2 2 2 1 1 2 2 1 1
4 4 3 3 3 3 4 4 4 3 3 3 4 4 5 5 5 5 5 5 5 5 5 5 5 4 4 3 2 1 1 2 2 2 3 3 3 3 3 2 2 2 1
4 4 3 3 3 4 4 4 4 3 4 5 5 5 5 6 8 7 6 6 6 6 6 6 5 5 4 4 4 3 1 2 2 3 3 4 3 3 2 2 3 3 4
4 4 4 4 4 5 5 4 5 5 5 5 6 7 7 5 8 8 8 6 6 7 6 6 4 4 3 1 2 2 3 4 3 1 3 3 2 2 2 2 2 3 3
5 5 5 5 6 6 7 6 6 6 6 6 7 5 5 6 8 9 8 6 6 6 6 5 3 3 2 1 1 1 1 1 1 1 1 2 1 0 1 1 1 2 1
7 6 6 7 7 8 8 7 6 6 6 6 5 6 6 6 8 9 8 6 6 6 5 4 3 2 4 6 1 2 2 2 2 5 5 5 5 7 3 1 2 3 3
8 8 9 10 10 9 8 7 6 7 7 7 6 7 7 5 7 8 7 5 7 6 5 4 5 4 5 6 2 2 3 2 2 2 3 4 5 1 6 1 2 3 4
9 10 11 11 10 9 8 6 7 7 7 8 8 7 6 5 6 9 8 6 6 6 5 5 2 6 7 7 8 2 2 1 3 2 2 2 2 2 2 1 1 2 3
11 12 12 11 10 9 8 8 7 7 8 8 7 6 5 5 8 8 9 8 7 6 6 4 2 8 9 9 8 8 9 6 2 2 3 3 3 2 2 1 1 1 0
12 13 12 10 9 9 9 8 7 8 8 7 6 6 6 5 6 8 9 9 8 7 5 5 9 9 8 6 9 9 9 2 3 3 3 3 3 2 1 1 1 0 -0
13 13 12 11 10 9 8 8 8 8 7 7 6 6 6 5 6 6 6 6 7 7 7 6 7 7 9 6 5 5 2 2 3 3 3 2 2 2 2 1 2 2 2
14 13 13 12 11 10 10 9 9 7 7 8 5 6 5 7 6 8 9 8 9 6 4 2 2 2 1 2 2 2 1 1 2 2 3 3 3 3 2 1 2 2 3
14 13 13 12 11 11 11 10 9 10 10 10 10 8 5 8 9 9 10 11 12 10 3 3 2 2 2 3 2 3 2 3 2 2 2 3 3 2 2 2 2 2 3
14 13 13 13 13 12 12 11 10 8 9 9 9 9 11 10 10 11 11 11 10 8 2 2 2 3 2 2 2 2 2 1 1 2 2 2 2 2 3 3 3 3 3
13 13 13 13 13 12 12 11 10 9 8 5 6 8 9 10 10 10 11 9 2 3 1 1 2 2 1 1 1 1 1 1 1 1 2 1 2 2 3 3 3 3 3
14 14 14 13 13 13 12 11 10 9 8 6 4 7 6 8 9 9 10 3 3 2 1 1 1 1 1 1 1 1 1 1 1 1 1 1 1 2 2 2 3 6 5
14 15 15 14 14 14 12 12 11 10 8 4 5 4 3 6 4 3 1 2 2 1 0 0 1 1 1 1 1 1 1 1 1 1 1 1 1 1 2 2 2 3 3
13 15 15 14 15 14 13 12 11 11 10 9 6 5 13 7 4 4 2 2 2 1 0 0 0 1 1 0 0 1 1 1 1 1 1 1 1 1 0 1 2 2 2
12 14 16 15 15 15 14 12 12 12 11 11 8 7 11 5 5 4 3 2 1 0 -0 -0 0 0 0 0 0 1 1 1 1 1 1 1 1 1 1 1 2 3 4
12 13 14 16 16 16 14 14 13 12 12 11 10 9 10 8 4 4 3 1 0 0 0 -0 -0 0 -0 -0 -0 -0 0 1 0 0 1 1 1 1 2 2 2 2 3
12 13 13 15 15 16 16 15 14 14 13 12 12 11 11 11 10 8 4 3 1 0 -0 0 0 -0 -0 -0 -1 -1 -1 -0 -1 -0 -0 0 1 2 1 2 1 2 2
11 12 14 14 14 15 16 16 15 15 14 14 13 13 12 12 10 10 10 9 4 1 2 1 -0 -0 -0 -0 -0 -0 8 12 2 9 -1 -0 0 1 1 2 3 4 4
10 11 13 14 15 15 15 15 15 15 15 15 15 14 14 13 12 11 10 9 7 4 3 2 -0 0 -0 -0 1 10 12 12 5 12 0 -0 0 0 1 3 6 6 5